This demonstration page uses our WeatherBlox Daily Observations layout. Learn more.

Left ArrowRight Arrow

Hourly Observations for November 11, 2015

Temp ( °F °C ) Dew Point ( °F °C ) Humidity (%) Winds ( mph kmh ) Pressure ( in mb ) Visibility ( mi km ) Precip ( " mm )
12:53 am 00:53 Mostly Clear with Mist and Fog 41 5 38 3.3 89 89 ENE 8 13 29.67 1005 5 8 0.00 0.00
1:07 am 01:07 Mostly Cloudy with Mist and Fog 41 5 39 3.9 93 93 NE 7 11 29.74 1007 5 8 0.00 0.00
1:53 am 01:53 Cloudy with Mist and Fog 44 6.7 42 5.6 93 93 ENE 10 17 29.66 1004 6 10 0.00 0.00
2:53 am 02:53 Cloudy 47 8.3 43 6.1 86 86 ENE 12 19 29.62 1003 10 16 0.00 0.00
3:53 am 03:53 Cloudy 46 7.8 43 6.1 89 89 E 13 20 29.60 1002 8 13 0.00 0.00
4:53 am 04:53 Cloudy 46 7.8 43 6.1 89 89 NE 16 26 29.57 1001 7 11 0.00 0.00
5:07 am 05:07 Cloudy with Mist and Fog 46 7.8 43 6.1 89 89 NE 16 26 29.59 1002 6 10 0.00 0.00
5:23 am 05:23 Cloudy with Mist and Fog 43 6.1 41 5 93 93 NE 17 28 29.62 1003 4 6 0.00 0.00
5:53 am 05:53 Cloudy with Mist and Fog 42 5.6 39 3.9 89 89 NE 16 26 29.58 1002 6 10 0.00 0.00
6:51 am 06:51 Cloudy with Mist and Fog 39 4 37 3 93 93 NNE 20 31 29.59 1002 2 3 0.00 0.00
6:53 am 06:53 Cloudy with Mist and Fog 39 3.9 38 3.3 96 96 NNE 17 28 29.55 1001 2 3 0.00 0.00
7:12 am 07:12 Mostly Cloudy with Mist and Fog 39 4 37 3 93 93 NNE 21 33 29.59 1002 1 1 0.00 0.00
7:53 am 07:53 Mostly Cloudy with Fog 38 3.3 37 2.8 97 97 NNE 18 30 29.53 1000 1 1 0.00 0.00
8:29 am 08:29 Cloudy with Mist and Fog 38 3.3 37 2.8 97 97 NE 21 33 29.56 1001 1 2 0.00 0.03
8:53 am 08:53 Cloudy with Mist and Fog 38 3.3 37 2.8 97 97 NE 21 33 29.50 999 2 3 0.00 0.03
9:53 am 09:53 Cloudy with Mist and Fog 38 3.3 37 2.8 97 97 NNE 21 33 29.48 998 2 3 0.00 0.00
10:53 am 10:53 Cloudy with Light Rain 39 3.9 37 2.8 93 93 N 23 37 29.46 998 1 2 0.00 0.03
11:34 am 11:34 Windy with Snow Likely 39 4 36 2 87 87 N 21 33 29.50 999 2 2 0.00 0.00
11:53 am 11:53 Windy with Snow Likely 38 3.3 36 2.2 93 93 N 24 39 29.48 998 2 3 0.01 0.25
12:08 pm 12:08 Cloudy with Light Rain 39 4 36 2 87 87 N 22 35 29.50 999 4 6 0.00 0.00
12:19 pm 12:19 Cloudy with Rain 39 3.9 36 2.2 89 89 N 30 48 29.53 1000 3 5 0.02 0.51
12:32 pm 12:32 Cloudy with Rain 39 4 36 2 87 87 N 33 54 29.50 999 4 6 0.00 0.00
12:38 pm 12:38 Cloudy with Light Rain 39 4 36 2 87 87 N 28 44 29.50 999 3 5 0.00 0.00
12:53 pm 12:53 Windy with Snow Likely 38 3.3 35 1.7 89 89 NNW 30 48 29.48 998 4 6 0.08 2.03
1:22 pm 13:22 Cloudy with Light Rain 37 3 34 1 87 87 N 35 56 29.53 1000 9 14 0.00 0.00
1:45 pm 13:45 Windy with Snow Likely 36 2.2 33 0.6 89 89 NNW 31 50 29.53 1000 5 8 0.01 0.25
1:53 pm 13:53 Windy with Snow Likely 35 1.7 33 0.6 93 93 NNW 32 52 29.48 998 3 5 0.02 0.51
1:55 pm 13:55 Windy with Snow Likely 35 1.7 33 0.6 93 93 NNW 31 50 29.53 1000 3 4 0.00 0.03
2:03 pm 14:03 Windy with Snow Likely 36 2 34 1 93 93 NNW 30 48 29.53 1000 4 6 0.00 0.00
2:13 pm 14:13 Windy with Snow Likely 35 1.7 32 0 89 89 NNW 33 54 29.53 1000 4 6 0.01 0.25
2:22 pm 14:22 Windy with Snow Likely 34 1 32 0 93 93 NNW 30 48 29.56 1001 2 3 0.00 0.00
2:32 pm 14:32 Mostly Cloudy with Light Snow 34 1 30 -1 87 87 NNW 29 46 29.59 1002 1 1 0.00 0.00
2:53 pm 14:53 Mostly Cloudy with Light Snow 33 0.6 31 -0.6 92 92 NNW 26 43 29.55 1001 1 1 0.02 0.51
3:09 pm 15:09 Mostly Cloudy with Heavy Snow 33 0.6 31 -0.6 92 92 NNW 25 41 29.65 1004 0 0 0.01 0.25
3:53 pm 15:53 Mostly Cloudy with Snow 33 0.6 31 -0.6 92 92 NW 22 35 29.62 1003 1 1 0.05 1.27
4:53 pm 16:53 Windy with Snow Likely 33 0.6 31 -0.6 92 92 NW 25 41 29.66 1004 1 1 0.03 0.76
5:00 pm 17:00 Windy with Snow Likely 34 1 30 -1 87 87 NW 24 39 29.74 1007 1 2 0.00 0.00
5:05 pm 17:05 Windy with Snow Likely 34 1.1 31 -0.6 89 89 NW 24 39 29.74 1007 2 3 0.00 0.03
5:08 pm 17:08 Windy with Snow Likely 34 1 32 0 93 93 NW 24 39 29.74 1007 3 5 0.00 0.00
5:31 pm 17:31 Cloudy 35 1.7 32 0 89 89 NW 24 39 29.74 1007 10 16 0.00 0.03
5:46 pm 17:46 Cloudy 36 2 32 0 87 87 NW 28 44 29.77 1008 10 16 0.00 0.00
5:53 pm 17:53 Cloudy 36 2.2 32 0 86 86 NW 25 41 29.71 1006 10 16 0.00 0.03
6:53 pm 18:53 Cloudy 36 2.2 32 0 86 86 NW 18 30 29.75 1007 10 16 0.00 0.00
7:48 pm 19:48 Partly Cloudy 36 2 32 0 87 87 NW 15 24 29.80 1009 10 16 0.00 0.00
7:53 pm 19:53 Mostly Clear 36 2.2 32 0 86 86 WNW 17 28 29.78 1008 10 16 0.00 0.00
8:10 pm 20:10 Mostly Cloudy 36 2 32 0 87 87 WNW 18 30 29.80 1009 10 16 0.00 0.00
8:32 pm 20:32 Partly Cloudy 36 2 32 0 87 87 NW 17 28 29.80 1009 10 16 0.00 0.00
8:53 pm 20:53 Clear 36 2.2 32 0 86 86 NW 15 24 29.80 1009 10 16 0.00 0.00
9:53 pm 21:53 Clear 36 2.2 31 -0.6 82 82 WNW 15 24 29.84 1010 10 16 0.00 0.00
10:53 pm 22:53 Clear 36 2.2 31 -0.6 82 82 WNW 16 26 29.86 1011 10 16 0.00 0.00
11:53 pm 23:53 Clear 37 2.8 31 -0.6 79 79 WNW 18 30 29.88 1012 10 16 0.00 0.00

Powered by AerisWeather